owner,sensor,date,latitude,longitude,relative_humidity,qcFlag 
DISL,ioos:station:DISL:MBLA:1,2016-02-01T00:00:00Z,30.4367,-88.0117,100.0,1111122 
DISL,ioos:station:DISL:MBLA:1,2016-02-01T00:30:00Z,30.4367,-88.0117,100.0,1111122 
DISL,ioos:station:DISL:MBLA:1,2016-02-01T01:00:00Z,30.4367,-88.0117,100.0,1111122 
DISL,ioos:station:DISL:MBLA:1,2016-02-01T01:30:00Z,30.4367,-88.0117,100.0,1111122 
DISL,ioos:station:DISL:MBLA:1,2016-02-01T02:00:00Z,30.4367,-88.0117,100.0,1111122 
DISL,ioos:station:DISL:MBLA:1,2016-02-01T02:30:00Z,30.4367,-88.0117,100.0,1111122 
DISL,ioos:station:DISL:MBLA:1,2016-02-01T03:00:00Z,30.4367,-88.0117,99.4,1111122 
DISL,ioos:station:DISL:MBLA:1,2016-02-01T03:30:00Z,30.4367,-88.0117,98.4,1111122 
DISL,ioos:station:DISL:MBLA:1,2016-02-01T04:00:00Z,30.4367,-88.0117,99.9,1111122 
DISL,ioos:station:DISL:MBLA:1,2016-02-01T04:30:00Z,30.4367,-88.0117,100.0,1111122 
DISL,ioos:station:DISL:MBLA:1,2016-02-01T05:00:00Z,30.4367,-88.0117,100.0,1111122 
DISL,ioos:station:DISL:MBLA:1,2016-02-01T05:30:00Z,30.4367,-88.0117,100.0,1111122 
DISL,ioos:station:DISL:MBLA:1,2016-02-01T06:00:00Z,30.4367,-88.0117,100.0,1111122 
DISL,ioos:station:DISL:MBLA:1,2016-02-03T21:30:00Z,30.4367,-88.0117,94.1,1111122 
DISL,ioos:station:DISL:MBLA:1,2016-02-03T22:00:00Z,30.4367,-88.0117,87.5,1111122 
DISL,ioos:station:DISL:MBLA:1,2016-02-03T22:30:00Z,30.4367,-88.0117,83.9,1111122 
DISL,ioos:station:DISL:MBLA:1,2016-02-03T23:00:00Z,30.4367,-88.0117,79.33,1111122 
DISL,ioos:station:DISL:MBLA:1,2016-02-03T23:30:00Z,30.4367,-88.0117,78.46,1111122 
DISL,ioos:station:DISL:MBLA:1,2016-02-04T00:00:00Z,30.4367,-88.0117,88.1,1111122 
DISL,ioos:station:DISL:MBLA:1,2016-02-04T00:30:00Z,30.4367,-88.0117,87.7,1111122 
DISL,ioos:station:DISL:MBLA:1,2016-02-04T01:00:00Z,30.4367,-88.0117,67.28,1111122 
DISL,ioos:station:DISL:MBLA:1,2016-02-04T01:30:00Z,30.4367,-88.0117,67.38,1111122 
DISL,ioos:station:DISL:MBLA:1,2016-02-04T02:00:00Z,30.4367,-88.0117,59.92,1111122 
DISL,ioos:station:DISL:MBLA:1,2016-02-04T02:30:00Z,30.4367,-88.0117,62.43,1111122 
DISL,ioos:station:DISL:MBLA:1,2016-02-04T03:00:00Z,30.4367,-88.0117,60.25,1111122 
DISL,ioos:station:DISL:MBLA:1,2016-02-04T03:30:00Z,30.4367,-88.0117,60.73,1111122 
DISL,ioos:station:DISL:MBLA:1,2016-02-04T04:00:00Z,30.4367,-88.0117,66.06,1111122 
DISL,ioos:station:DISL:MBLA:1,2016-02-04T04:30:00Z,30.4367,-88.0117,65.45,1111122 
DISL,ioos:station:DISL:MBLA:1,2016-02-04T05:00:00Z,30.4367,-88.0117,58.19,1111122 
DISL,ioos:station:DISL:MBLA:1,2016-02-04T05:30:00Z,30.4367,-88.0117,60.39,1111122 
DISL,ioos:station:DISL:MBLA:1,2016-02-04T06:00:00Z,30.4367,-88.0117,63.96,1111122 
DISL,ioos:station:DISL:MBLA:1,2016-02-04T06:30:00Z,30.4367,-88.0117,62.36,1111122 
DISL,ioos:station:DISL:MBLA:1,2016-02-04T07:00:00Z,30.4367,-88.0117,60.6,1111122 
DISL,ioos:station:DISL:MBLA:1,2016-02-04T07:30:00Z,30.4367,-88.0117,59.59,1111122 
DISL,ioos:station:DISL:MBLA:1,2016-02-04T08:00:00Z,30.4367,-88.0117,69.5,1111122 
DISL,ioos:station:DISL:MBLA:1,2016-02-04T08:30:00Z,30.4367,-88.0117,70.49,1111122 
DISL,ioos:station:DISL:MBLA:1,2016-02-04T09:00:00Z,30.4367,-88.0117,62.62,1111122 
DISL,ioos:station:DISL:MBLA:1,2016-02-04T09:30:00Z,30.4367,-88.0117,68.15,1111122 
DISL,ioos:station:DISL:MBLA:1,2016-02-04T10:00:00Z,30.4367,-88.0117,69.0,1111122 
DISL,ioos:station:DISL:MBLA:1,2016-02-04T10:30:00Z,30.4367,-88.0117,69.74,1111122 
DISL,ioos:station:DISL:MBLA:1,2016-02-04T11:00:00Z,30.4367,-88.0117,73.35,1111122 
DISL,ioos:station:DISL:MBLA:1,2016-02-04T11:30:00Z,30.4367,-88.0117,71.18,1111122 
DISL,ioos:station:DISL:MBLA:1,2016-02-04T12:00:00Z,30.4367,-88.0117,71.97,1111122 
DISL,ioos:station:DISL:MBLA:1,2016-02-04T12:30:00Z,30.4367,-88.0117,72.45,1111122 
DISL,ioos:station:DISL:MBLA:1,2016-02-04T13:00:00Z,30.4367,-88.0117,71.33,1111122 
DISL,ioos:station:DISL:MBLA:1,2016-02-04T13:30:00Z,30.4367,-88.0117,68.89,1111122 
DISL,ioos:station:DISL:MBLA:1,2016-02-04T14:00:00Z,30.4367,-88.0117,70.37,1111122 
DISL,ioos:station:DISL:MBLA:1,2016-02-04T14:30:00Z,30.4367,-88.0117,68.87,1111122 
DISL,ioos:station:DISL:MBLA:1,2016-02-04T15:00:00Z,30.4367,-88.0117,70.7,1111122 
DISL,ioos:station:DISL:MBLA:1,2016-02-04T15:30:00Z,30.4367,-88.0117,69.24,1111122 
DISL,ioos:station:DISL:MBLA:1,2016-02-04T16:00:00Z,30.4367,-88.0117,60.92,1111122 
DISL,ioos:station:DISL:MBLA:1,2016-02-04T16:30:00Z,30.4367,-88.0117,55.69,1111122 
DISL,ioos:station:DISL:MBLA:1,2016-02-04T17:00:00Z,30.4367,-88.0117,54.71,1111122 
DISL,ioos:station:DISL:MBLA:1,2016-02-04T17:30:00Z,30.4367,-88.0117,54.46,1111122 
DISL,ioos:station:DISL:MBLA:1,2016-02-04T18:00:00Z,30.4367,-88.0117,48.59,1111122 
DISL,ioos:station:DISL:MBLA:1,2016-02-04T18:30:00Z,30.4367,-88.0117,49.03,1111122 
DISL,ioos:station:DISL:MBLA:1,2016-02-04T19:00:00Z,30.4367,-88.0117,41.8,1111122 
DISL,ioos:station:DISL:MBLA:1,2016-02-04T19:30:00Z,30.4367,-88.0117,48.75,1111122 
DISL,ioos:station:DISL:MBLA:1,2016-02-04T20:00:00Z,30.4367,-88.0117,41.83,1111122 
DISL,ioos:station:DISL:MBLA:1,2016-02-04T20:30:00Z,30.4367,-88.0117,42.58,1111122 
DISL,ioos:station:DISL:MBLA:1,2016-02-04T21:00:00Z,30.4367,-88.0117,38.4,1111122 
DISL,ioos:station:DISL:MBLA:1,2016-02-04T21:30:00Z,30.4367,-88.0117,39.76,1111122 
DISL,ioos:station:DISL:MBLA:1,2016-02-04T22:00:00Z,30.4367,-88.0117,40.91,1111122 
DISL,ioos:station:DISL:MBLA:1,2016-02-04T22:30:00Z,30.4367,-88.0117,41.39,1111122 
DISL,ioos:station:DISL:MBLA:1,2016-02-04T23:00:00Z,30.4367,-88.0117,39.02,1111122 
DISL,ioos:station:DISL:MBLA:1,2016-02-04T23:30:00Z,30.4367,-88.0117,48.04,1111122 
DISL,ioos:station:DISL:MBLA:1,2016-02-05T00:00:00Z,30.4367,-88.0117,41.5,1111122 
DISL,ioos:station:DISL:MBLA:1,2016-02-05T00:30:00Z,30.4367,-88.0117,47.37,1111122 
DISL,ioos:station:DISL:MBLA:1,2016-02-05T01:00:00Z,30.4367,-88.0117,44.87,1111122 
DISL,ioos:station:DISL:MBLA:1,2016-02-05T01:30:00Z,30.4367,-88.0117,49.41,1111122 
DISL,ioos:station:DISL:MBLA:1,2016-02-05T02:00:00Z,30.4367,-88.0117,42.93,1111122 
DISL,ioos:station:DISL:MBLA:1,2016-02-05T02:30:00Z,30.4367,-88.0117,47.41,1111122 
DISL,ioos:station:DISL:MBLA:1,2016-02-05T03:00:00Z,30.4367,-88.0117,49.99,1111122 
DISL,ioos:station:DISL:MBLA:1,2016-02-05T03:30:00Z,30.4367,-88.0117,53.87,1111122 
DISL,ioos:station:DISL:MBLA:1,2016-02-05T04:00:00Z,30.4367,-88.0117,45.25,1111122 
DISL,ioos:station:DISL:MBLA:1,2016-02-05T04:30:00Z,30.4367,-88.0117,55.8,1111122 
DISL,ioos:station:DISL:MBLA:1,2016-02-05T05:00:00Z,30.4367,-88.0117,61.82,1111122 
DISL,ioos:station:DISL:MBLA:1,2016-02-05T05:30:00Z,30.4367,-88.0117,58.53,1111122 
DISL,ioos:station:DISL:MBLA:1,2016-02-05T06:00:00Z,30.4367,-88.0117,63.66,1111122 
DISL,ioos:station:DISL:MBLA:1,2016-02-05T06:30:00Z,30.4367,-88.0117,60.14,1111122 
DISL,ioos:station:DISL:MBLA:1,2016-02-05T07:00:00Z,30.4367,-88.0117,65.2,1111122 
DISL,ioos:station:DISL:MBLA:1,2016-02-05T07:30:00Z,30.4367,-88.0117,61.26,1111122 
DISL,ioos:station:DISL:MBLA:1,2016-02-05T08:00:00Z,30.4367,-88.0117,63.57,1111122 
DISL,ioos:station:DISL:MBLA:1,2016-02-05T08:30:00Z,30.4367,-88.0117,63.84,1111122 
DISL,ioos:station:DISL:MBLA:1,2016-02-05T09:00:00Z,30.4367,-88.0117,61.09,1111122 
DISL,ioos:station:DISL:MBLA:1,2016-02-05T09:30:00Z,30.4367,-88.0117,62.17,1111122 
DISL,ioos:station:DISL:MBLA:1,2016-02-05T10:00:00Z,30.4367,-88.0117,62.38,1111122 
DISL,ioos:station:DISL:MBLA:1,2016-02-05T10:30:00Z,30.4367,-88.0117,61.37,1111122 
DISL,ioos:station:DISL:MBLA:1,2016-02-05T11:00:00Z,30.4367,-88.0117,58.04,1111122 
DISL,ioos:station:DISL:MBLA:1,2016-02-05T11:30:00Z,30.4367,-88.0117,53.93,1111122 
DISL,ioos:station:DISL:MBLA:1,2016-02-05T12:00:00Z,30.4367,-88.0117,61.0,1111122 
DISL,ioos:station:DISL:MBLA:1,2016-02-05T12:30:00Z,30.4367,-88.0117,62.66,1111122 
DISL,ioos:station:DISL:MBLA:1,2016-02-05T13:00:00Z,30.4367,-88.0117,56.44,1111122 
DISL,ioos:station:DISL:MBLA:1,2016-02-05T13:30:00Z,30.4367,-88.0117,60.72,1111122 
DISL,ioos:station:DISL:MBLA:1,2016-02-05T14:00:00Z,30.4367,-88.0117,60.34,1111122 
DISL,ioos:station:DISL:MBLA:1,2016-02-05T14:30:00Z,30.4367,-88.0117,59.25,1111122 
DISL,ioos:station:DISL:MBLA:1,2016-02-05T15:00:00Z,30.4367,-88.0117,59.32,1111122 
DISL,ioos:station:DISL:MBLA:1,2016-02-05T15:30:00Z,30.4367,-88.0117,59.93,1111122 
DISL,ioos:station:DISL:MBLA:1,2016-02-05T16:00:00Z,30.4367,-88.0117,45.87,1111122 
DISL,ioos:station:DISL:MBLA:1,2016-02-05T16:30:00Z,30.4367,-88.0117,41.68,1111122 
DISL,ioos:station:DISL:MBLA:1,2016-02-05T17:00:00Z,30.4367,-88.0117,45.58,1111122 
DISL,ioos:station:DISL:MBLA:1,2016-02-05T17:30:00Z,30.4367,-88.0117,31.6,1111122 
DISL,ioos:station:DISL:MBLA:1,2016-02-05T18:00:00Z,30.4367,-88.0117,36.14,1111122 
DISL,ioos:station:DISL:MBLA:1,2016-02-05T18:30:00Z,30.4367,-88.0117,32.17,1111122 
DISL,ioos:station:DISL:MBLA:1,2016-02-05T19:00:00Z,30.4367,-88.0117,31.15,1111122 
DISL,ioos:station:DISL:MBLA:1,2016-02-05T19:30:00Z,30.4367,-88.0117,34.61,1111122 
DISL,ioos:station:DISL:MBLA:1,2016-02-05T20:00:00Z,30.4367,-88.0117,38.34,1111122 
DISL,ioos:station:DISL:MBLA:1,2016-02-05T20:30:00Z,30.4367,-88.0117,33.29,1111122 
DISL,ioos:station:DISL:MBLA:1,2016-02-05T21:00:00Z,30.4367,-88.0117,32.71,1111122 
DISL,ioos:station:DISL:MBLA:1,2016-02-05T21:30:00Z,30.4367,-88.0117,37.46,1111122 
DISL,ioos:station:DISL:MBLA:1,2016-02-05T22:00:00Z,30.4367,-88.0117,29.41,1111122 
DISL,ioos:station:DISL:MBLA:1,2016-02-05T22:30:00Z,30.4367,-88.0117,30.53,1111122 
DISL,ioos:station:DISL:MBLA:1,2016-02-05T23:00:00Z,30.4367,-88.0117,40.61,1111122 
DISL,ioos:station:DISL:MBLA:1,2016-02-05T23:30:00Z,30.4367,-88.0117,31.52,1111122 
DISL,ioos:station:DISL:MBLA:1,2016-02-06T00:00:00Z,30.4367,-88.0117,37.76,1111122 
DISL,ioos:station:DISL:MBLA:1,2016-02-06T00:30:00Z,30.4367,-88.0117,30.37,1111122 
DISL,ioos:station:DISL:MBLA:1,2016-02-06T01:00:00Z,30.4367,-88.0117,39.17,1111122 
DISL,ioos:station:DISL:MBLA:1,2016-02-06T01:30:00Z,30.4367,-88.0117,40.9,1111122 
DISL,ioos:station:DISL:MBLA:1,2016-02-06T02:00:00Z,30.4367,-88.0117,43.03,1111122 
DISL,ioos:station:DISL:MBLA:1,2016-02-06T02:30:00Z,30.4367,-88.0117,48.09,1111122 
DISL,ioos:station:DISL:MBLA:1,2016-02-06T03:00:00Z,30.4367,-88.0117,44.87,1111122 
DISL,ioos:station:DISL:MBLA:1,2016-02-06T03:30:00Z,30.4367,-88.0117,42.6,1111122 
DISL,ioos:station:DISL:MBLA:1,2016-02-06T04:00:00Z,30.4367,-88.0117,49.56,1111122 
DISL,ioos:station:DISL:MBLA:1,2016-02-06T04:30:00Z,30.4367,-88.0117,55.7,1111122 
DISL,ioos:station:DISL:MBLA:1,2016-02-06T05:00:00Z,30.4367,-88.0117,49.39,1111122 
DISL,ioos:station:DISL:MBLA:1,2016-02-06T05:30:00Z,30.4367,-88.0117,50.89,1111122 
DISL,ioos:station:DISL:MBLA:1,2016-02-06T06:00:00Z,30.4367,-88.0117,57.58,1111122 
DISL,ioos:station:DISL:MBLA:1,2016-02-06T06:30:00Z,30.4367,-88.0117,48.51,1111122 
DISL,ioos:station:DISL:MBLA:1,2016-02-06T07:00:00Z,30.4367,-88.0117,52.59,1111122 
DISL,ioos:station:DISL:MBLA:1,2016-02-06T07:30:00Z,30.4367,-88.0117,51.74,1111122 
DISL,ioos:station:DISL:MBLA:1,2016-02-06T08:00:00Z,30.4367,-88.0117,50.04,1111122 
DISL,ioos:station:DISL:MBLA:1,2016-02-06T08:30:00Z,30.4367,-88.0117,45.87,1111122 
DISL,ioos:station:DISL:MBLA:1,2016-02-06T09:00:00Z,30.4367,-88.0117,50.93,1111122 
DISL,ioos:station:DISL:MBLA:1,2016-02-06T09:30:00Z,30.4367,-88.0117,53.61,1111122 
DISL,ioos:station:DISL:MBLA:1,2016-02-06T10:00:00Z,30.4367,-88.0117,55.01,1111122 
DISL,ioos:station:DISL:MBLA:1,2016-02-06T10:30:00Z,30.4367,-88.0117,59.63,1111122 
DISL,ioos:station:DISL:MBLA:1,2016-02-06T11:00:00Z,30.4367,-88.0117,58.13,1111122 
DISL,ioos:station:DISL:MBLA:1,2016-02-06T11:30:00Z,30.4367,-88.0117,58.3,1111122 
DISL,ioos:station:DISL:MBLA:1,2016-02-06T12:00:00Z,30.4367,-88.0117,65.98,1111122 
DISL,ioos:station:DISL:MBLA:1,2016-02-06T12:30:00Z,30.4367,-88.0117,54.84,1111122 
DISL,ioos:station:DISL:MBLA:1,2016-02-06T13:00:00Z,30.4367,-88.0117,54.57,1111122 
DISL,ioos:station:DISL:MBLA:1,2016-02-06T13:30:00Z,30.4367,-88.0117,48.42,1111122 
DISL,ioos:station:DISL:MBLA:1,2016-02-06T14:00:00Z,30.4367,-88.0117,49.13,1111122 
DISL,ioos:station:DISL:MBLA:1,2016-02-06T14:30:00Z,30.4367,-88.0117,56.66,1111122 
DISL,ioos:station:DISL:MBLA:1,2016-02-06T15:00:00Z,30.4367,-88.0117,52.91,1111122 
DISL,ioos:station:DISL:MBLA:1,2016-02-06T15:30:00Z,30.4367,-88.0117,58.31,1111122 
DISL,ioos:station:DISL:MBLA:1,2016-02-06T16:00:00Z,30.4367,-88.0117,54.34,1111122 
DISL,ioos:station:DISL:MBLA:1,2016-02-06T16:30:00Z,30.4367,-88.0117,54.74,1111122 
DISL,ioos:station:DISL:MBLA:1,2016-02-06T17:00:00Z,30.4367,-88.0117,47.61,1111122 
DISL,ioos:station:DISL:MBLA:1,2016-02-06T17:30:00Z,30.4367,-88.0117,43.46,1111122 
DISL,ioos:station:DISL:MBLA:1,2016-02-06T18:00:00Z,30.4367,-88.0117,32.33,1111122 
DISL,ioos:station:DISL:MBLA:1,2016-02-06T18:30:00Z,30.4367,-88.0117,36.71,1111122 
DISL,ioos:station:DISL:MBLA:1,2016-02-06T19:00:00Z,30.4367,-88.0117,29.11,1111122 
DISL,ioos:station:DISL:MBLA:1,2016-02-06T19:30:00Z,30.4367,-88.0117,31.95,1111122 
DISL,ioos:station:DISL:MBLA:1,2016-02-06T20:00:00Z,30.4367,-88.0117,30.7,1111122 
DISL,ioos:station:DISL:MBLA:1,2016-02-06T20:30:00Z,30.4367,-88.0117,30.29,1111122 
DISL,ioos:station:DISL:MBLA:1,2016-02-06T21:00:00Z,30.4367,-88.0117,37.65,1111122 
DISL,ioos:station:DISL:MBLA:1,2016-02-06T21:30:00Z,30.4367,-88.0117,35.99,1111122 
DISL,ioos:station:DISL:MBLA:1,2016-02-06T22:00:00Z,30.4367,-88.0117,39.12,1111122 
DISL,ioos:station:DISL:MBLA:1,2016-02-06T22:30:00Z,30.4367,-88.0117,38.03,1111122 
DISL,ioos:station:DISL:MBLA:1,2016-02-06T23:00:00Z,30.4367,-88.0117,46.04,1111122 
DISL,ioos:station:DISL:MBLA:1,2016-02-06T23:30:00Z,30.4367,-88.0117,46.48,1111122 
DISL,ioos:station:DISL:MBLA:1,2016-02-07T00:00:00Z,30.4367,-88.0117,51.3,1111122 
DISL,ioos:station:DISL:MBLA:1,2016-02-07T00:30:00Z,30.4367,-88.0117,50.36,1111122 
DISL,ioos:station:DISL:MBLA:1,2016-02-07T01:00:00Z,30.4367,-88.0117,51.76,1111122 
DISL,ioos:station:DISL:MBLA:1,2016-02-07T01:30:00Z,30.4367,-88.0117,48.94,1111122 
DISL,ioos:station:DISL:MBLA:1,2016-02-07T02:00:00Z,30.4367,-88.0117,47.62,1111122 
DISL,ioos:station:DISL:MBLA:1,2016-02-07T02:30:00Z,30.4367,-88.0117,49.24,1111122 
DISL,ioos:station:DISL:MBLA:1,2016-02-07T03:00:00Z,30.4367,-88.0117,49.11,1111122 
DISL,ioos:station:DISL:MBLA:1,2016-02-07T03:30:00Z,30.4367,-88.0117,43.85,1111122 
DISL,ioos:station:DISL:MBLA:1,2016-02-07T04:00:00Z,30.4367,-88.0117,47.75,1111122 
DISL,ioos:station:DISL:MBLA:1,2016-02-07T04:30:00Z,30.4367,-88.0117,49.25,1111122 
DISL,ioos:station:DISL:MBLA:1,2016-02-07T05:00:00Z,30.4367,-88.0117,54.95,1111122 
DISL,ioos:station:DISL:MBLA:1,2016-02-07T05:30:00Z,30.4367,-88.0117,53.19,1111122 
DISL,ioos:station:DISL:MBLA:1,2016-02-07T06:00:00Z,30.4367,-88.0117,52.99,1111122 
DISL,ioos:station:DISL:MBLA:1,2016-02-07T06:30:00Z,30.4367,-88.0117,46.78,1111122 
DISL,ioos:station:DISL:MBLA:1,2016-02-07T07:00:00Z,30.4367,-88.0117,48.71,1111122 
DISL,ioos:station:DISL:MBLA:1,2016-02-07T07:30:00Z,30.4367,-88.0117,55.61,1111122 
DISL,ioos:station:DISL:MBLA:1,2016-02-07T08:00:00Z,30.4367,-88.0117,51.47,1111122 
DISL,ioos:station:DISL:MBLA:1,2016-02-07T08:30:00Z,30.4367,-88.0117,61.62,1111122 
DISL,ioos:station:DISL:MBLA:1,2016-02-07T09:00:00Z,30.4367,-88.0117,56.93,1111122 
DISL,ioos:station:DISL:MBLA:1,2016-02-07T09:30:00Z,30.4367,-88.0117,51.2,1111122 
DISL,ioos:station:DISL:MBLA:1,2016-02-07T10:00:00Z,30.4367,-88.0117,59.52,1111122 
DISL,ioos:station:DISL:MBLA:1,2016-02-07T10:30:00Z,30.4367,-88.0117,64.21,1111122 
DISL,ioos:station:DISL:MBLA:1,2016-02-07T11:00:00Z,30.4367,-88.0117,61.32,1111122 
DISL,ioos:station:DISL:MBLA:1,2016-02-07T11:30:00Z,30.4367,-88.0117,64.28,1111122 
DISL,ioos:station:DISL:MBLA:1,2016-02-07T12:00:00Z,30.4367,-88.0117,61.63,1111122 
DISL,ioos:station:DISL:MBLA:1,2016-02-07T12:30:00Z,30.4367,-88.0117,60.07,1111122 
DISL,ioos:station:DISL:MBLA:1,2016-02-07T13:00:00Z,30.4367,-88.0117,59.15,1111122 
DISL,ioos:station:DISL:MBLA:1,2016-02-07T13:30:00Z,30.4367,-88.0117,57.39,1111122 
DISL,ioos:station:DISL:MBLA:1,2016-02-07T14:00:00Z,30.4367,-88.0117,57.96,1111122 
DISL,ioos:station:DISL:MBLA:1,2016-02-07T14:30:00Z,30.4367,-88.0117,58.4,1111122 
DISL,ioos:station:DISL:MBLA:1,2016-02-07T15:00:00Z,30.4367,-88.0117,59.61,1111122 
DISL,ioos:station:DISL:MBLA:1,2016-02-07T15:30:00Z,30.4367,-88.0117,55.36,1111122 
DISL,ioos:station:DISL:MBLA:1,2016-02-07T16:00:00Z,30.4367,-88.0117,47.38,1111122 
DISL,ioos:station:DISL:MBLA:1,2016-02-07T16:30:00Z,30.4367,-88.0117,49.01,1111122 
DISL,ioos:station:DISL:MBLA:1,2016-02-07T17:00:00Z,30.4367,-88.0117,47.23,1111122 
DISL,ioos:station:DISL:MBLA:1,2016-02-07T17:30:00Z,30.4367,-88.0117,45.37,1111122 
DISL,ioos:station:DISL:MBLA:1,2016-02-07T18:00:00Z,30.4367,-88.0117,37.73,1111122 
DISL,ioos:station:DISL:MBLA:1,2016-02-07T18:30:00Z,30.4367,-88.0117,40.81,1111122 
DISL,ioos:station:DISL:MBLA:1,2016-02-07T19:00:00Z,30.4367,-88.0117,32.23,1111122 
DISL,ioos:station:DISL:MBLA:1,2016-02-07T19:30:00Z,30.4367,-88.0117,31.75,1111122 
DISL,ioos:station:DISL:MBLA:1,2016-02-07T20:00:00Z,30.4367,-88.0117,31.41,1111122 
DISL,ioos:station:DISL:MBLA:1,2016-02-07T20:30:00Z,30.4367,-88.0117,29.91,1111122 
DISL,ioos:station:DISL:MBLA:1,2016-02-07T21:00:00Z,30.4367,-88.0117,31.57,1111122 
DISL,ioos:station:DISL:MBLA:1,2016-02-07T21:30:00Z,30.4367,-88.0117,48.08,1111122 
DISL,ioos:station:DISL:MBLA:1,2016-02-07T22:00:00Z,30.4367,-88.0117,46.6,1111122 
DISL,ioos:station:DISL:MBLA:1,2016-02-07T22:30:00Z,30.4367,-88.0117,51.21,1111122 
DISL,ioos:station:DISL:MBLA:1,2016-02-07T23:00:00Z,30.4367,-88.0117,58.55,1111122 
DISL,ioos:station:DISL:MBLA:1,2016-02-07T23:30:00Z,30.4367,-88.0117,63.58,1111122 
DISL,ioos:station:DISL:MBLA:1,2016-02-08T00:00:00Z,30.4367,-88.0117,63.24,1111122 
DISL,ioos:station:DISL:MBLA:1,2016-02-08T00:30:00Z,30.4367,-88.0117,61.32,1111122 
DISL,ioos:station:DISL:MBLA:1,2016-02-08T01:00:00Z,30.4367,-88.0117,66.92,1111122 
DISL,ioos:station:DISL:MBLA:1,2016-02-08T01:30:00Z,30.4367,-88.0117,64.72,1111122 
DISL,ioos:station:DISL:MBLA:1,2016-02-08T02:00:00Z,30.4367,-88.0117,64.28,1111122 
DISL,ioos:station:DISL:MBLA:1,2016-02-08T02:30:00Z,30.4367,-88.0117,70.18,1111122 
DISL,ioos:station:DISL:MBLA:1,2016-02-08T03:00:00Z,30.4367,-88.0117,66.32,1111122 
DISL,ioos:station:DISL:MBLA:1,2016-02-08T03:30:00Z,30.4367,-88.0117,64.42,1111122 
DISL,ioos:station:DISL:MBLA:1,2016-02-08T04:00:00Z,30.4367,-88.0117,70.93,1111122 
DISL,ioos:station:DISL:MBLA:1,2016-02-08T04:30:00Z,30.4367,-88.0117,70.08,1111122 
DISL,ioos:station:DISL:MBLA:1,2016-02-08T05:00:00Z,30.4367,-88.0117,69.34,1111122 
DISL,ioos:station:DISL:MBLA:1,2016-02-08T05:30:00Z,30.4367,-88.0117,69.57,1111122 
DISL,ioos:station:DISL:MBLA:1,2016-02-08T06:00:00Z,30.4367,-88.0117,72.7,1111122 
DISL,ioos:station:DISL:MBLA:1,2016-02-08T06:30:00Z,30.4367,-88.0117,72.63,1111122 
DISL,ioos:station:DISL:MBLA:1,2016-02-08T07:00:00Z,30.4367,-88.0117,70.46,1111122 
DISL,ioos:station:DISL:MBLA:1,2016-02-08T07:30:00Z,30.4367,-88.0117,66.49,1111122 
DISL,ioos:station:DISL:MBLA:1,2016-02-08T08:00:00Z,30.4367,-88.0117,70.56,1111122 
DISL,ioos:station:DISL:MBLA:1,2016-02-08T08:30:00Z,30.4367,-88.0117,65.37,1111122 
DISL,ioos:station:DISL:MBLA:1,2016-02-08T09:00:00Z,30.4367,-88.0117,67.95,1111122 
DISL,ioos:station:DISL:MBLA:1,2016-02-08T09:30:00Z,30.4367,-88.0117,65.44,1111122 
DISL,ioos:station:DISL:MBLA:1,2016-02-08T10:00:00Z,30.4367,-88.0117,71.76,1111122 
DISL,ioos:station:DISL:MBLA:1,2016-02-08T10:30:00Z,30.4367,-88.0117,70.34,1111122 
DISL,ioos:station:DISL:MBLA:1,2016-02-08T11:00:00Z,30.4367,-88.0117,72.65,1111122 
DISL,ioos:station:DISL:MBLA:1,2016-02-08T11:30:00Z,30.4367,-88.0117,75.03,1111122 
DISL,ioos:station:DISL:MBLA:1,2016-02-08T12:00:00Z,30.4367,-88.0117,76.86,1111122 
DISL,ioos:station:DISL:MBLA:1,2016-02-08T12:30:00Z,30.4367,-88.0117,78.35,1111122 
DISL,ioos:station:DISL:MBLA:1,2016-02-08T13:00:00Z,30.4367,-88.0117,81.1,1111122 
DISL,ioos:station:DISL:MBLA:1,2016-02-08T13:30:00Z,30.4367,-88.0117,79.84,1111122 
DISL,ioos:station:DISL:MBLA:1,2016-02-08T14:00:00Z,30.4367,-88.0117,78.5,1111122 
DISL,ioos:station:DISL:MBLA:1,2016-02-08T14:30:00Z,30.4367,-88.0117,75.75,1111122 
DISL,ioos:station:DISL:MBLA:1,2016-02-08T15:00:00Z,30.4367,-88.0117,70.93,1111122 
DISL,ioos:station:DISL:MBLA:1,2016-02-08T15:30:00Z,30.4367,-88.0117,71.6,1111122 
DISL,ioos:station:DISL:MBLA:1,2016-02-08T16:00:00Z,30.4367,-88.0117,67.93,1111122 
DISL,ioos:station:DISL:MBLA:1,2016-02-08T16:30:00Z,30.4367,-88.0117,56.63,1111122 
DISL,ioos:station:DISL:MBLA:1,2016-02-08T17:00:00Z,30.4367,-88.0117,53.0,1111122 
DISL,ioos:station:DISL:MBLA:1,2016-02-08T17:30:00Z,30.4367,-88.0117,51.84,1111122 
DISL,ioos:station:DISL:MBLA:1,2016-02-08T18:00:00Z,30.4367,-88.0117,35.66,1111122 
DISL,ioos:station:DISL:MBLA:1,2016-02-08T18:30:00Z,30.4367,-88.0117,42.58,1111122 
DISL,ioos:station:DISL:MBLA:1,2016-02-08T19:00:00Z,30.4367,-88.0117,44.95,1111122 
DISL,ioos:station:DISL:MBLA:1,2016-02-08T19:30:00Z,30.4367,-88.0117,36.3,1111122 
DISL,ioos:station:DISL:MBLA:1,2016-02-08T20:00:00Z,30.4367,-88.0117,36.63,1111122 
DISL,ioos:station:DISL:MBLA:1,2016-02-08T20:30:00Z,30.4367,-88.0117,33.17,1111122 
DISL,ioos:station:DISL:MBLA:1,2016-02-08T21:00:00Z,30.4367,-88.0117,28.87,1111122 
DISL,ioos:station:DISL:MBLA:1,2016-02-08T21:30:00Z,30.4367,-88.0117,31.89,1111122 
DISL,ioos:station:DISL:MBLA:1,2016-02-08T22:00:00Z,30.4367,-88.0117,28.73,1111122 
DISL,ioos:station:DISL:MBLA:1,2016-02-08T22:30:00Z,30.4367,-88.0117,27.68,1111122 
DISL,ioos:station:DISL:MBLA:1,2016-02-08T23:00:00Z,30.4367,-88.0117,28.16,1111122 
DISL,ioos:station:DISL:MBLA:1,2016-02-08T23:30:00Z,30.4367,-88.0117,37.12,1111122 
DISL,ioos:station:DISL:MBLA:1,2016-02-09T00:00:00Z,30.4367,-88.0117,30.43,1111122 
DISL,ioos:station:DISL:MBLA:1,2016-02-09T00:30:00Z,30.4367,-88.0117,30.84,1111122 
DISL,ioos:station:DISL:MBLA:1,2016-02-09T01:00:00Z,30.4367,-88.0117,38.96,1111122 
DISL,ioos:station:DISL:MBLA:1,2016-02-09T01:30:00Z,30.4367,-88.0117,40.45,1111122 
DISL,ioos:station:DISL:MBLA:1,2016-02-09T02:00:00Z,30.4367,-88.0117,39.74,1111122 
DISL,ioos:station:DISL:MBLA:1,2016-02-09T02:30:00Z,30.4367,-88.0117,35.98,1111122 
DISL,ioos:station:DISL:MBLA:1,2016-02-09T03:00:00Z,30.4367,-88.0117,39.1,1111122 
DISL,ioos:station:DISL:MBLA:1,2016-02-09T03:30:00Z,30.4367,-88.0117,40.02,1111122 
DISL,ioos:station:DISL:MBLA:1,2016-02-09T04:00:00Z,30.4367,-88.0117,39.24,1111122 
DISL,ioos:station:DISL:MBLA:1,2016-02-09T04:30:00Z,30.4367,-88.0117,43.45,1111122 
DISL,ioos:station:DISL:MBLA:1,2016-02-09T05:00:00Z,30.4367,-88.0117,48.34,1111122 
DISL,ioos:station:DISL:MBLA:1,2016-02-09T05:30:00Z,30.4367,-88.0117,46.95,1111122 
DISL,ioos:station:DISL:MBLA:1,2016-02-09T06:00:00Z,30.4367,-88.0117,42.44,1111122 
DISL,ioos:station:DISL:MBLA:1,2016-02-09T06:30:00Z,30.4367,-88.0117,45.7,1111122 
DISL,ioos:station:DISL:MBLA:1,2016-02-09T07:00:00Z,30.4367,-88.0117,44.89,1111122 
DISL,ioos:station:DISL:MBLA:1,2016-02-09T07:30:00Z,30.4367,-88.0117,47.95,1111122 
DISL,ioos:station:DISL:MBLA:1,2016-02-09T08:00:00Z,30.4367,-88.0117,47.37,1111122 
DISL,ioos:station:DISL:MBLA:1,2016-02-09T08:30:00Z,30.4367,-88.0117,48.15,1111122 
DISL,ioos:station:DISL:MBLA:1,2016-02-09T09:00:00Z,30.4367,-88.0117,55.35,1111122 
DISL,ioos:station:DISL:MBLA:1,2016-02-09T09:30:00Z,30.4367,-88.0117,53.85,1111122 
DISL,ioos:station:DISL:MBLA:1,2016-02-09T10:00:00Z,30.4367,-88.0117,53.24,1111122 
DISL,ioos:station:DISL:MBLA:1,2016-02-09T10:30:00Z,30.4367,-88.0117,50.32,1111122 
DISL,ioos:station:DISL:MBLA:1,2016-02-09T11:00:00Z,30.4367,-88.0117,54.67,1111122 
DISL,ioos:station:DISL:MBLA:1,2016-02-09T11:30:00Z,30.4367,-88.0117,52.63,1111122 
DISL,ioos:station:DISL:MBLA:1,2016-02-09T12:00:00Z,30.4367,-88.0117,56.34,1111122 
DISL,ioos:station:DISL:MBLA:1,2016-02-09T12:30:00Z,30.4367,-88.0117,56.88,1111122 
DISL,ioos:station:DISL:MBLA:1,2016-02-09T13:00:00Z,30.4367,-88.0117,52.44,1111122 
DISL,ioos:station:DISL:MBLA:1,2016-02-09T13:30:00Z,30.4367,-88.0117,53.69,1111122 
DISL,ioos:station:DISL:MBLA:1,2016-02-09T14:00:00Z,30.4367,-88.0117,48.12,1111122 
DISL,ioos:station:DISL:MBLA:1,2016-02-09T14:30:00Z,30.4367,-88.0117,47.33,1111122 